星链-33597 (STARLINK-33597)

导读

STARLINK-335597是美国SpaceX星链互联网卫星项目的卫星,于2025年1月21日发射。星链项目旨在搭建全球卫星互联网,为地面提供高速低延迟网络接入服务,该卫星加入星座后将进一步扩展星链全球网络覆盖范围,提升服务容量,持续推动卫星互联网普及应用。

基本信息
目录编号:
62763
目录名称:
STARLINK-33597
国际标识:
2025-015F
轨道中心:
EARTH
卫星名称:
星链-33597
卫星全名:
星链-33597 (STARLINK-33597)
卫星状态:
在轨 (已飞行509 天)
发射日期:
2025-01-21 UTC
国别 :
美国 (US)
星等 :
--
轨道信息
数据来源 国际轨道数据 AOE轨道数据
星历时间 2026-06-13T18:39:50+0800
21小时前
查看轨道信息
2026-06-11T06:00:00+0800
3天前
查看轨道信息
半长轴 6848.812km 6848.871km
偏心率 0.0001355 0.0001253
轨道倾角 53.159° 53.156°
近地点辐角 85.069° 70.919°
升交点赤经 237.545° 249.315°
平近点角 275.047° 23.672°
近地点 469.746km 469.875km
远地点 471.604km 471.593km
周期 94.012分钟 94.013分钟
每日圈数 15.31722 15.317022
详细信息
固有亮度:
5
最大亮度:
2.5
卫星平台:
Starlink V1.0
覆盖范围:
全球
运营商:
太空探索技术公司
运营商所在国:
美国
制造商(研发单位):
太空探索技术公司
制造商所在国:
美国
使用方式:
暂无
卫星简介
Starlink 计划是 SpaceX 推出的全球卫星互联网项目,通过发射低轨道卫星,为全球尤其是偏远地区提供高速、低延迟的互联网服务。自 2019 年起,Starlink 已部署数千颗卫星,旨在缩小全球数字鸿沟,推动互联网普及。该项目还为军事、航空等行业提供通信支持,带来广泛经济效益。
2D轨道图
3D轨道图
轨道高度分析图
轨道倾角分析图
轨道综合分析图
查看轨道综合分析图